Temp
8 8 8 8 9 10 10 11 11 13 13 14 14 15 15 16 16 16 16 16 16 16 15 15 14 14 14 13 13 13 12 12 11 11 11 11 11 11 11 11 11 11 12
7 7 8 8 8 9 9 10 11 12 12 13 13 14 14 15 16 16 16 15 15 15 15 15 14 14 14 13 13 12 12 12 11 11 11 11 11 11 11 11 11 11 11
7 7 7 7 7 8 9 10 11 12 12 12 13 13 14 14 15 15 15 15 15 15 15 15 14 14 14 13 13 12 12 12 11 11 11 11 11 11 11 11 11 11 11
5 6 6 6 6 7 8 8 9 11 12 13 12 13 13 13 14 15 15 15 15 15 15 15 14 14 14 14 13 13 12 12 11 11 11 11 11 11 10 10 10 11 11
4 5 5 5 6 7 7 7 8 9 9 12 13 11 13 12 13 14 14 14 15 15 14 14 14 14 14 14 14 13 13 12 11 11 10 10 10 11 11 10 10 11 11
4 5 5 5 6 6 6 7 7 8 8 8 12 12 11 12 12 13 13 13 14 14 14 14 14 14 14 13 13 13 13 13 12 11 10 10 10 10 10 10 10 10 11
4 4 4 4 4 4 4 5 6 7 8 8 9 11 11 11 12 12 12 12 13 13 14 14 14 14 14 13 13 13 13 13 13 12 11 11 10 10 10 10 10 10 11
3 3 3 3 3 3 3 3 3 2 5 6 5 7 12 12 12 12 12 12 12 13 13 13 13 13 13 13 13 12 12 12 12 12 12 11 11 10 10 10 10 11 11
2 2 2 2 3 3 2 2 2 1 2 5 6 5 11 12 10 11 12 11 11 11 12 12 13 13 13 13 13 13 12 12 12 12 12 12 12 11 11 10 10 11 11
2 2 2 2 2 2 2 1 2 1 1 2 5 7 6 7 11 10 10 11 12 11 11 11 12 12 12 13 13 12 12 12 12 12 12 12 12 12 11 11 11 11 11
1 1 1 1 1 1 1 1 1 0 -1 0 1 2 4 6 6 8 9 9 10 11 11 11 13 13 13 12 12 12 12 12 12 11 12 12 12 12 12 12 11 11 11
1 1 1 1 1 1 1 0 0 0 -0 -1 -0 1 2 3 4 5 6 7 7 9 9 11 12 12 13 13 12 12 12 12 12 12 11 12 12 12 12 12 12 11 11
1 1 0 0 1 0 0 1 0 -0 -0 -1 -1 -0 1 1 2 3 4 5 6 7 9 10 10 11 12 13 13 12 12 12 12 12 11 11 11 12 12 12 12 11 10
1 1 0 -0 -0 -0 -0 -0 0 0 -0 -1 -1 -1 -1 -0 0 1 2 3 5 7 8 8 10 10 9 10 11 12 13 12 11 11 11 11 11 12 12 12 12 11 11
1 1 0 0 -0 -1 -1 -1 -1 -1 -1 -0 -1 -1 -2 -1 -1 -0 1 2 3 4 6 7 8 8 8 9 9 10 10 11 12 12 11 11 11 11 12 12 12 11 11
0 0 0 -0 -0 -1 -1 -1 -2 -2 -2 -2 -2 -1 -2 -3 -2 -1 -1 -0 1 2 4 4 4 4 6 7 9 8 9 10 10 11 12 11 11 11 11 11 11 11 11
0 -0 -0 -0 -0 -1 -1 -1 -2 -3 -2 -2 -2 -2 -2 -2 -3 -2 -2 -1 -1 0 1 2 2 2 4 5 7 8 9 8 9 10 11 11 11 11 11 11 10 10 10
-0 -0 -1 -1 -1 -1 -1 -1 -2 -2 -3 -3 -3 -3 -3 -3 -3 -3 -3 -2 -2 -1 -1 0 0 1 2 3 4 6 8 9 8 9 9 10 10 10 10 11 10 10 10
-1 -1 -1 -1 -1 -1 -1 -2 -2 -2 -2 -3 -3 -3 -4 -4 -4 -4 -4 -3 -3 -2 -1 -1 -0 0 1 2 3 4 6 7 8 8 8 8 8 9 9 10 10 10 10
-1 -1 -1 -1 -2 -2 -2 -2 -3 -4 -4 -4 -4 -4 -4 -4 -4 -4 -4 -3 -2 -2 -2 -2 -1 -1 0 1 3 3 4 5 6 7 8 8 8 9 9 9 9 9 9
-1 -1 -1 -2 -2 -2 -3 -3 -4 -4 -4 -4 -4 -4 -4 -4 -4 -4 -3 -3 -3 -2 -2 -2 -1 -1 0 1 1 2 3 4 5 7 7 7 7 8 8 8 9 9 9
-2 -2 -2 -3 -3 -3 -3 -3 -5 -5 -5 -5 -6 -5 -5 -4 -4 -5 -4 -4 -3 -2 -1 -2 -1 -1 -0 0 1 1 2 3 4 5 5 5 5 6 7 7 8 9 9
-2 -3 -3 -3 -3 -3 -3 -3 -5 -5 -6 -6 -6 -6 -6 -6 -5 -4 -4 -4 -4 -3 -3 -3 -1 -1 -1 -1 -0 -0 0 0 1 2 3 3 4 5 6 7 7 8 8
-2 -3 -3 -4 -4 -3 -4 -5 -6 -6 -6 -5 -5 -5 -6 -6 -5 -6 -5 -4 -4 -4 -4 -3 -3 -2 -2 -2 -2 -2 -1 -1 0 2 3 3 4 5 6 6 7 7 8
-3 -4 -5 -5 -5 -4 -5 -6 -7 -7 -7 -6 -6 -6 -6 -6 -6 -5 -4 -4 -5 -5 -4 -4 -4 -3 -3 -3 -3 -3 -2 -1 -0 1 2 3 4 4 5 5 6 6 6
-4 -5 -6 -6 -6 -6 -6 -7 -7 -7 -7 -6 -6 -6 -6 -6 -5 -5 -5 -5 -5 -5 -4 -4 -4 -4 -4 -4 -3 -3 -2 -1 -1 -0 3 2 3 3 3 4 5 4 4
Height
874 874 871 870 868 866 863 863 861 857 855 854 856 857 860 862 864 866 868 869 872 871 871 872 872 873 875 874 874 875 875 876 875 875 875 875 875 874 875 872 872 871 869
876 874 873 872 870 867 866 863 862 859 854 853 855 855 858 860 863 865 867 869 871 873 873 873 873 873 875 876 876 875 876 876 876 876 876 875 875 875 875 873 872 872 870
878 877 876 874 871 868 866 864 862 860 859 853 850 853 856 859 861 864 866 868 870 873 874 874 874 875 875 876 876 877 878 877 877 877 876 876 875 874 875 873 873 872 870
879 878 876 875 874 870 867 865 862 860 858 856 853 852 854 856 859 862 865 867 869 871 874 875 876 875 876 876 877 877 879 880 878 878 877 876 875 874 874 874 873 872 870
878 878 879 875 874 871 869 865 865 860 859 857 854 853 854 854 856 860 863 865 868 870 872 875 876 877 877 877 877 878 879 880 880 879 878 876 875 874 874 873 873 872 871
879 878 878 875 875 872 870 868 865 863 861 858 855 854 854 851 858 859 861 865 868 871 871 873 875 876 878 878 878 879 879 879 880 879 878 877 876 875 874 874 873 872 871
882 880 879 879 879 877 875 870 867 864 861 858 855 853 854 853 855 858 862 864 865 870 871 872 874 875 877 878 879 879 880 880 880 879 879 878 877 876 875 874 873 872 871
884 883 882 881 879 877 874 871 868 867 866 864 863 859 857 858 852 860 863 862 865 867 870 870 872 874 875 876 876 878 878 879 879 879 878 878 877 876 875 874 872 872 871
886 885 884 882 880 878 876 874 871 870 870 868 869 870 861 857 860 860 863 864 864 865 866 867 870 872 873 874 875 875 877 877 877 877 877 877 876 875 875 874 873 872 870
888 887 886 884 883 880 878 876 875 874 873 872 868 869 869 869 861 862 858 866 863 866 863 864 867 869 870 871 872 873 873 874 875 876 875 875 874 873 873 873 872 871 869
890 889 887 887 884 881 880 879 877 876 875 876 876 873 869 867 867 867 863 864 861 861 864 865 864 865 865 866 867 867 869 870 871 872 873 873 872 871 870 870 870 869 867
891 889 889 887 884 882 881 881 879 879 877 877 877 878 878 876 877 875 874 872 865 860 863 859 860 862 862 862 862 863 864 865 867 867 869 870 869 868 867 867 867 867 865
890 889 888 886 885 883 882 881 881 879 879 879 879 879 879 879 879 880 880 871 870 864 862 860 861 856 857 859 857 856 857 859 861 863 864 864 865 864 863 863 863 864 862
889 888 887 886 885 884 883 882 881 880 880 880 878 878 879 880 879 877 878 876 873 869 865 861 859 856 853 854 855 853 851 851 853 856 858 859 859 860 859 860 859 859 859
888 888 888 887 885 884 883 883 882 881 880 879 878 878 878 878 880 882 881 878 876 872 864 860 859 854 851 852 851 851 848 847 848 848 849 851 853 854 854 855 855 855 855
887 887 887 887 886 885 884 884 883 882 882 880 879 878 880 882 881 878 875 875 876 875 869 862 859 857 853 851 847 848 843 842 844 842 841 843 844 848 848 850 850 850 850
885 886 886 886 885 885 885 884 883 883 882 880 878 877 878 878 877 876 876 875 875 874 870 861 860 852 854 853 844 844 840 840 838 836 837 837 836 839 841 843 844 844 845
882 883 884 885 885 884 884 884 883 882 881 879 878 877 877 877 875 874 873 874 873 871 869 860 858 857 849 848 845 833 838 838 835 832 832 831 831 831 833 835 837 839 839
879 880 881 882 882 883 883 882 882 881 880 878 876 876 876 875 875 873 872 871 871 870 869 867 861 855 849 848 838 836 839 835 832 825 824 824 826 823 824 826 831 833 833
874 876 877 878 879 880 881 881 881 880 879 878 877 876 874 873 872 871 870 869 869 868 867 864 857 852 850 843 841 837 834 831 825 822 823 822 820 815 816 818 824 826 828
868 870 871 873 875 876 876 877 878 877 877 877 877 875 874 872 870 869 868 866 865 864 863 861 857 852 847 843 841 838 835 830 824 817 816 814 811 808 810 815 816 818 822
861 864 866 869 870 871 871 872 873 874 875 875 876 875 874 869 867 867 865 864 864 862 860 857 854 851 848 846 841 839 834 826 821 818 815 813 813 811 810 807 808 811 814
854 857 860 862 863 864 865 866 867 870 869 871 872 873 872 871 865 862 862 861 860 859 858 856 853 851 846 843 839 835 833 830 826 819 814 808 805 803 801 801 804 804 807
845 849 853 856 858 859 860 861 862 862 862 862 863 864 866 865 864 861 860 859 856 855 854 853 850 849 847 842 839 835 830 826 820 815 813 805 801 800 800 799 796 796 800
837 842 848 851 854 856 857 859 859 858 856 855 855 855 858 859 858 856 855 855 853 850 849 847 845 842 840 837 835 832 828 822 811 808 807 801 799 796 793 788 790 789 795
828 834 839 843 848 852 852 852 855 855 854 853 850 850 851 853 854 851 847 849 847 845 841 838 837 835 832 830 829 827 822 817 814 805 800 799 798 795 789 783 781 784 788
Wind_Speed
21 21 21 19 17 16 19 21 22 21 18 5 9 15 14 14 14 11 10 10 9 7 6 6 6 6 5 5 5 4 5 4 5 5 5 5 6 7 7 9 10 10 11
19 20 21 20 19 16 16 17 19 23 24 17 6 11 15 15 16 14 12 12 10 8 7 6 7 6 6 5 4 4 3 3 3 3 3 4 4 5 5 7 8 9 10
17 18 19 20 21 18 14 15 15 16 23 22 12 7 14 15 15 16 14 12 12 10 9 7 7 7 6 5 4 4 3 3 2 1 1 1 2 4 4 6 7 8 9
17 17 18 19 19 20 18 16 17 15 17 23 18 7 10 15 14 16 16 14 13 12 10 10 8 9 7 6 5 5 5 4 3 2 1 2 1 2 3 5 6 7 8
17 17 17 18 18 19 20 19 16 15 15 15 19 15 6 9 11 14 16 14 14 13 13 11 10 9 9 8 7 8 7 7 5 4 4 3 2 1 2 3 5 6 8
17 17 17 19 18 19 21 19 17 16 14 17 11 12 5 6 7 6 11 14 13 14 13 12 11 12 11 11 9 9 9 9 8 7 6 6 5 4 3 2 4 5 7
16 17 18 18 18 18 18 20 16 16 18 25 8 7 14 6 1 4 10 13 13 14 14 14 14 13 14 13 14 12 10 10 11 9 9 8 8 7 5 4 4 5 6
17 17 17 18 18 18 20 20 20 15 12 24 11 8 1 5 24 11 9 12 11 15 16 14 15 16 15 15 14 16 16 12 11 12 12 11 10 9 8 6 5 5 7
16 16 16 16 17 18 19 20 20 17 13 12 13 9 3 3 2 10 16 17 15 11 15 15 18 17 17 18 18 17 17 18 18 13 12 13 13 11 11 9 7 6 7
14 14 15 15 15 16 18 18 17 15 13 15 9 16 9 9 2 1 4 4 11 14 17 13 18 20 20 21 22 22 21 19 20 19 18 15 15 14 12 12 10 8 8
13 14 14 13 14 15 16 15 15 15 13 11 12 14 12 12 18 5 3 8 9 11 11 16 10 10 17 26 25 25 24 25 23 20 19 20 18 16 15 13 12 10 11
10 12 13 14 14 14 15 14 14 13 14 11 10 11 10 6 11 6 3 7 10 6 17 7 10 10 13 15 24 28 27 26 27 26 21 21 21 20 17 15 13 12 15
8 11 12 13 14 14 13 12 12 12 12 11 10 9 8 8 9 8 7 6 5 8 5 9 7 7 8 14 15 15 25 29 29 29 26 23 23 23 21 18 16 13 16
6 8 10 11 11 11 12 12 11 11 11 10 10 10 8 8 9 10 9 9 4 4 8 3 11 6 12 16 17 15 15 16 27 31 31 29 27 26 25 23 20 16 21
2 4 6 8 9 10 11 11 10 10 10 9 10 10 9 10 8 7 7 7 7 3 3 4 6 15 23 23 22 23 19 18 18 18 30 34 34 31 27 26 25 25 23
2 0 3 5 6 8 9 10 9 9 9 9 9 9 8 6 6 10 10 8 9 10 4 6 18 28 26 24 23 23 24 24 25 22 20 29 33 35 31 29 29 27 24
6 3 1 3 4 5 6 8 7 7 8 9 9 9 9 10 10 8 8 8 9 11 14 20 19 28 30 27 24 25 24 25 25 25 24 23 28 33 33 31 32 29 27
10 7 4 3 2 3 5 5 5 6 8 9 9 8 9 10 11 10 10 10 10 11 15 22 23 25 23 26 26 24 27 28 27 26 26 25 26 28 32 32 34 32 27
15 12 9 6 4 3 4 4 4 5 7 8 9 9 10 9 10 10 11 10 11 11 12 15 21 20 22 24 23 27 25 23 24 23 25 27 27 24 28 31 36 34 29
18 15 12 9 8 6 5 4 4 6 7 8 10 11 11 11 11 12 11 10 10 13 13 15 20 20 20 22 20 20 23 26 30 27 25 24 25 23 26 30 35 35 32
22 18 16 14 12 9 7 5 5 6 8 10 11 11 11 12 11 10 12 13 13 13 14 13 15 20 20 20 21 24 23 26 25 20 24 21 25 25 29 30 33 35 34
27 23 22 19 16 12 8 7 6 7 8 10 11 12 13 11 10 13 12 11 12 15 15 15 17 17 20 21 21 20 23 22 14 14 25 28 28 30 29 26 30 36 34
32 29 25 23 20 16 12 10 8 8 9 10 11 12 13 11 12 12 12 12 12 14 15 18 18 17 23 24 24 24 22 23 25 29 27 32 31 34 31 29 31 32 35
37 32 29 25 21 18 14 12 10 11 11 11 11 11 13 14 15 14 14 15 14 16 15 15 16 19 20 22 24 26 28 31 31 28 25 21 25 31 30 28 27 31 32
39 34 29 24 22 20 16 12 11 11 11 11 11 11 12 13 14 14 14 17 19 17 14 16 19 22 23 24 24 26 25 24 25 25 23 21 20 26 31 29 27 29 31
37 32 26 23 20 19 16 12 11 11 11 11 10 11 12 14 15 13 13 18 22 20 20 22 22 23 21 22 20 19 23 24 23 20 15 20 23 15 8 13 20 24 27
Wind_Direction
30 29 26 22 18 16 22 26 26 30 23 327 233 234 231 227 216 208 198 191 202 200 195 190 184 187 175 171 167 171 140 121 108 96 79 71 60 60 46 52 44 41 37
31 27 26 22 20 15 10 15 19 22 33 18 308 238 234 223 221 215 209 205 206 219 209 212 204 201 200 203 192 182 162 143 120 93 79 71 63 62 42 44 42 34 31
37 29 26 23 19 13 6 5 7 15 19 27 9 266 238 231 223 222 215 213 209 222 220 218 215 219 203 211 217 228 209 191 172 129 58 42 59 63 42 39 33 30 25
38 35 30 25 18 18 16 11 7 8 14 21 20 345 246 230 231 228 221 217 216 217 223 232 239 236 229 232 229 245 245 238 236 242 258 290 351 30 23 28 23 20 18
38 36 33 30 22 20 19 18 15 13 15 14 28 11 282 233 235 238 227 223 226 223 223 236 239 252 255 251 246 253 261 256 255 256 264 273 275 301 336 12 14 11 9
34 34 32 30 26 23 20 20 18 23 26 353 9 29 357 219 235 268 243 236 233 237 231 232 242 239 255 266 262 257 259 268 268 262 264 270 277 278 293 330 357 359 356
38 37 35 32 33 32 25 22 18 20 26 13 6 24 38 57 291 288 310 261 242 247 243 242 244 251 252 261 263 267 270 265 276 266 267 270 277 278 281 296 320 336 337
40 37 35 33 29 30 29 27 27 11 21 26 4 307 42 70 63 20 320 325 271 254 253 251 256 254 260 257 263 265 263 280 270 270 273 269 273 276 277 280 291 312 319
43 40 38 36 32 32 30 29 28 26 8 12 37 7 343 54 354 67 44 28 14 310 269 263 260 263 263 264 266 269 267 263 274 280 270 269 269 269 273 275 280 293 301
48 46 43 39 38 37 35 32 30 30 26 12 12 15 21 336 351 283 67 38 14 5 10 325 275 270 270 268 269 267 268 271 262 275 280 277 266 262 267 270 273 282 287
52 49 47 43 43 42 41 37 36 34 32 28 19 357 359 12 22 344 358 350 350 356 337 348 333 324 285 271 265 264 265 272 274 264 270 274 273 266 257 262 267 272 273
55 51 47 45 44 42 40 40 40 41 35 29 25 18 18 15 353 2 337 317 337 348 320 321 355 343 327 312 275 270 267 267 269 270 266 268 270 271 265 255 257 265 267
54 46 43 44 44 44 43 40 41 42 40 34 30 17 14 6 354 341 306 349 328 316 317 326 304 323 329 341 331 304 274 269 268 268 264 265 265 263 265 261 250 252 263
56 42 37 38 43 44 44 45 44 42 36 36 36 28 11 354 354 358 334 337 319 295 295 318 327 340 357 336 324 334 332 305 269 266 267 264 262 259 261 261 258 242 262
91 49 37 33 33 35 40 41 47 44 41 36 32 27 10 359 350 329 328 333 327 311 306 312 308 319 334 336 325 313 315 314 305 298 266 263 265 262 255 260 258 259 265
194 65 30 29 29 26 27 35 45 43 41 39 29 21 13 358 346 339 348 328 314 308 276 335 305 308 314 326 326 322 315 311 306 298 293 265 260 263 259 251 256 256 259
216 224 294 2 8 12 18 19 30 33 33 32 29 16 6 356 349 351 347 341 324 312 297 308 303 311 308 306 322 321 316 311 306 305 296 288 266 259 257 253 251 251 256
222 225 234 257 305 338 347 358 5 4 10 16 18 10 356 346 344 343 343 335 330 327 314 309 310 311 315 313 308 324 323 308 304 302 300 290 280 263 255 251 247 249 251
220 222 227 238 256 279 301 317 326 340 346 352 353 347 342 340 336 335 335 332 329 325 313 301 304 314 317 319 321 315 315 319 314 313 309 299 284 272 257 250 248 246 247
223 224 229 236 247 258 271 278 302 323 329 333 332 330 330 328 324 327 329 327 325 321 320 317 315 319 320 328 329 329 323 320 318 323 313 309 296 284 267 250 250 245 244
226 227 229 232 236 242 249 246 280 305 315 316 319 317 315 317 315 316 320 319 320 320 318 315 313 318 324 328 327 326 313 315 318 330 326 334 333 309 282 255 247 246 243
226 224 226 227 230 235 236 243 255 273 285 295 300 302 305 309 311 310 311 311 309 310 311 310 308 306 313 314 318 319 327 322 317 310 324 313 321 308 293 272 257 246 240
224 224 225 226 229 233 233 234 236 249 262 273 285 292 297 294 298 305 306 308 305 305 302 308 303 304 312 317 326 326 316 312 305 302 309 302 307 307 308 292 263 255 243
224 223 225 227 230 235 234 229 227 238 249 265 276 283 287 292 302 303 302 301 303 305 303 300 295 297 299 304 312 312 311 304 298 300 290 274 290 294 299 290 275 257 246
223 223 226 228 233 237 235 232 235 242 250 257 268 269 282 282 292 297 298 300 303 302 301 298 297 298 300 301 301 303 300 297 297 299 292 262 277 289 292 296 278 254 242
223 219 221 227 234 243 243 235 244 259 262 263 261 262 264 270 281 283 288 300 302 303 308 307 305 304 304 304 302 294 300 292 297 303 295 255 266 270 293 290 283 249 233